x

Ilm3 - 27 Miles Se Of Wrightsville Beach, Nc (41037) Weather Station

9:08 - Tue 23rd Aug 2016 All times are EDT. -4 hours from GMT.

  • Wind
    18mph, 25mph gusts
  • Sea Temp 85°f
  • Aire Temp 82°f
  • Sea Pressure 1023.9mb
  • Ilm3 - 27 Miles Se Of Wrightsville Beach, Nc
  • Ilm3 - 27 Miles Se Of Wrightsville Beach, Nc

More Historic Weather Station data

Upgrade to MSW Pro to gain access to the past 30 days of data for over 8000 Wavebouys and Weather Stations around the globe.

Join Pro

Comparision Forecast

View Surf forecast
   
mar 08/23 9:08 18 25 mph 1023.9mb 85f 82f
8:08 16 22 mph 1023.5mb 85f 82f
7:08 16 22 mph 1023.6mb 85f 82f
6:08 16 20 mph 1023.3mb 85f 83f
5:08 16 20 mph 1023.3mb 85f 83f
4:08 16 20 mph 1023.6mb 85f 83f
3:08 13 18 mph 1024.2mb 85f 83f
2:08 13 20 mph 1024.9mb 85f 83f
1:08 13 20 mph 1025.2mb 85f 83f
12:08 16 20 mph 1025mb 85f 83f
11:08 13 20 mph 1025mb 85f 83f
10:08 13 18 mph 1024.7mb 85f 83f
9:08 13 18 mph 1024.2mb 85f 83f
8:08 13 18 mph 1023.9mb 85f 83f
7:08 13 18 mph 1023.5mb 85f 83f
6:08 13 18 mph 1022.8mb 85f 82f
5:08 11 16 mph 1022.2mb 85f 83f
4:08 11 16 mph 1021.9mb 85f 83f
3:08 9 11 mph 1021.9mb 85f 83f
2:08 9 11 mph 1021.8mb 85f 83f
1:08 9 13 mph 1021.5mb 85f 83f
12:08 7 11 mph 1021.3mb 85f 83f
lun 08/22 11:08 7 9 mph 1021.5mb 85f 83f
10:08 7 11 mph 1021.2mb 85f 83f
9:08 7 11 mph 1020.6mb 85f 83f
8:08 9 11 mph 1019.8mb 85f 83f
7:08 7 11 mph 1019.4mb 85f 84f
6:08 9 11 mph 1019.2mb 85f 84f
5:08 7 9 mph 1018.9mb 85f 84f
4:08 7 9 mph 1018.9mb 85f 83f
3:08 9 13 mph 1019mb 85f 83f
2:08 9 13 mph 1019.2mb 85f 83f
1:08 9 16 mph 1018.8mb 85f 82f
12:08 11 16 mph 1018.7mb 85f 82f
10:08 18 22 mph 1017.6mb 85f 81f
9:08 18 22 mph 1017mb 85f 80f
8:08 18 22 mph 1016.6mb 85f 81f
7:08 16 22 mph 1015.8mb 85f 80f
6:08 18 22 mph 1014.9mb 85f 81f
5:08 18 22 mph 1014.5mb 85f 82f
4:08 13 18 mph 1014.1mb 85f 82f
3:08 16 22 mph 1014.2mb 85f 83f
2:08 16 22 mph 1013.7mb 85f 85f
1:08 18 25 mph 1013.6mb 85f 85f
12:08 18 22 mph 1013mb 85f 86f
dom 08/21 11:08 18 22 mph 1012.8mb 85f 85f
10:08 18 25 mph 1012.7mb 85f 85f
9:08 22 29 mph 1012.1mb 85f 85f
8:08 20 27 mph 1011.6mb 85f 85f
7:08 22 29 mph 1011mb 85f 86f
6:08 20 25 mph 1010.9mb 85f 86f
5:08 18 25 mph 1011.1mb 85f 86f
4:08 18 22 mph 1011.3mb 85f 86f
3:08 18 25 mph 1011.7mb 85f 86f
2:08 18 22 mph 1012mb 85f 85f
12:08 16 18 mph 1013mb 85f 85f
11:08 16 18 mph 1013mb 85f 85f
10:08 13 18 mph 1013.1mb 85f 85f
9:08 13 18 mph 1013.3mb 85f 85f
8:08 13 18 mph 1013mb 85f 85f
7:08 11 18 mph 1012.2mb 85f 84f
6:08 13 18 mph 1011.4mb 85f 84f
5:08 11 16 mph 1011.1mb 85f 83f
4:08 13 18 mph 1010.9mb 85f 83f
3:08 2 4 mph 1011.5mb 85f 82f
2:08 7 11 mph 1011.7mb 85f 81f
1:08 13 20 mph 1012.3mb 85f 80f
12:08 20 27 mph 1012mb 85f 81f
sáb 08/20 11:08 18 29 mph 1011.8mb 85f 84f
10:08 16 22 mph 1011.7mb 85f 85f
9:08 13 18 mph 1011.4mb 85f 84f
8:08 13 18 mph 1011.2mb 85f 84f
7:08 13 18 mph 1011.1mb 85f 84f
6:08 13 16 mph 1010.9mb 85f 84f
5:08 11 16 mph 1011.1mb 86f 84f
4:08 9 13 mph 1011.5mb 86f 84f
3:08 9 13 mph 1012mb 86f 84f
2:08 7 9 mph 1012.6mb 85f 83f
1:08 7 11 mph 1013mb 85f 83f
12:08 2 4 mph 1013.3mb 85f 83f
11:08 4 9 mph 1013.3mb 85f 83f
10:08 4 9 mph 1013.9mb 85f 82f
9:08 2 4 mph 1013.9mb 85f 82f
8:08 4 7 mph 1013.7mb 85f 81f
7:08 7 9 mph 1012.6mb 85f 80f
6:08 4 9 mph 1012.4mb 85f 80f
5:08 2 4 mph 1013.4mb 85f 78f
4:08 4 9 mph 1013.4mb 85f 77f
3:08 7 13 mph 1014mb 85f 76f